Página principal
METAR-TAF:

METAR-TAF

Aeroportos :

Atar, Mauritânia

latitude: 20-30-24N, longitude: 013-02-35W, altura: 231 m

Observação actual do tempo

O boletim foi feito há 11 horas e 54 minutos, às 18:00 UTC
Vento 18 kt de es-nordeste
Temperatura 32°C
Humidade 24%
Pressão 1015 hPa
Visibilidade: 4000 m
Areia levantada pelo vento

METAR: GQPA 221800Z 06018KT 4000 BLSA NSC 32/09 Q1015

Hora: 05:54 (05:54 UTC)


TAF: em falta

Observações e previsões do tempo de mais de 4000 aeroportos (mensagens METAR e TAF).

As estações disponíveis são os pontos amarelos e vermelhos sobre o mapa.

Mova o rato sobre o mapa para ver o nome da estação.

Depois clique no ponto para visualizar as observações e previsões meteorológicas.

Para alterar o mapa : clique nos botões verdes com uma cruz preta para aumentar o zoom; no botão verde com uma pitada de zoom; ou nas setas verdes para mapas adjacentes.


METAR-TAF: